Weather Service Report


366 
ASUS44 KEWX 240502
RWRTX 
SOUTH TEXAS REGIONAL WEATHER ROUNDUP
NATIONAL WEATHER SERVICE AUSTIN/SAN ANTONIO TX
1200 AM CDT WED SEP 24 2014

NOTE: "FAIR" INDICATED FEW OR NO CLOUDS BELOW 12,000 FEET WITH NO
SIGNIFICANT WEATHER AND/OR OBSTRUCTIONS TO VISIBILITY.

* - THESE STATIONS ARE NOT NWS OR FAA STATIONS...AND ARE NOT SUBJECT
    TO NWS AND FAA QUALITY CONTROL.
 
TXZ171-172-183>190-240600-
TEXAS HILL COUNTRY AND EDWARDS PLATEAU
  
CITY           SKY/WX    TMP DP  RH WIND       PRES   REMARKS
JUNCTION       MOCLDY    72  60  66 NE5       30.12R                  
*LLANO         PTCLDY    66  57  72 CALM      30.15R                  
BURNET         PTCLDY    67  55  65 CALM      30.14S                  
*HORSESHOE BAY NOT AVBL                                               
*KERRVILLE     MOCLDY    69  58  67 CALM      30.14R                  
*FREDERICKSBRG PTCLDY    66  59  76 CALM      30.13R                  
*ROCKSPRINGS   MOCLDY    72  63  73 E6        30.15S                  
*BOERNE STAGE  MOCLDY    68  54  60 CALM      30.13S                  
*CASTROVILLE   MOCLDY    76  53  44 E6        30.10S                  
HONDO          MOCLDY    76  55  48 E8        30.11R                  
*UVALDE        MOCLDY    76  55  47 E7        30.09R                  
DEL RIO        MOCLDY    81  67  62 E7        30.04R                  
LAUGHLIN AFB   NOT AVBL                                               
CARRIZO SPRGS  CLOUDY    77  59  53 SE8       30.05S                  
$$

TXZ173-191>194-202-209-217>225-228-240600-
CENTRAL AND SOUTH CENTRAL TEXAS
  
CITY           SKY/WX    TMP DP  RH WIND       PRES   REMARKS
GEORGETOWN     MOCLDY    63  55  77 CALM      30.11S                  
AUSTIN/BERGSTM MOCLDY    70  59  68 E3        30.09S                  
AUSTIN/MABRY   MOCLDY    72  55  55 E3        30.10S                  
*AUSTIN/EXEC   MOCLDY    66  57  72 CALM      30.10S                  
*LAGO VISTA    MOCLDY    68  56  65 E6        30.12S                  
SAN MARCOS     MOCLDY    70  54  56 E6        30.10S                  
NEW BRAUNFELS  MOCLDY    71  57  61 E6        30.07S                  
RANDOLPH AFB   MOCLDY    71  57  62 E5        30.09R                  
PT SAN ANTONIO MOCLDY    76  56  49 E12       30.07R                  
SAN ANTONIO    MOCLDY    74  56  53 E6        30.09R                  
STINSON FIELD  CLOUDY    75  56  51 E7        30.07R                  
*PLEASANTON    CLOUDY    74  54  48 E3        30.08S                  
*LA GRANGE     MOCLDY    70  62  78 CALM      30.07S                  
*GIDDINGS      MOCLDY    68  57  68 E6        30.13R                  
*GONZALES      MOCLDY    70  60  70 CALM      30.08R                  
$$

TXZ163>164-176>182-195>201-210>213-226-227-235-240600-
SOUTHEAST TEXAS
  
CITY           SKY/WX    TMP DP  RH WIND       PRES   REMARKS
COLLEGE STN    MOCLDY    70  57  63 E5        30.09S                  
*BRYAN         MOCLDY   N/A N/A N/A CALM      30.10R                  
*CALDWELL      MOCLDY    68  57  68 CALM      30.13R                  
*CROCKETT      MOCLDY    63  61  94 CALM      30.13S                  
*BRENHAM       MOCLDY    68  59  72 CALM      30.10S                  
HUNTSVILLE     MOCLDY    63  57  81 CALM      30.10S                  
CONROE         MOCLDY    62  60  93 CALM      30.10S                  
HOUSTON BUSH   MOCLDY    69  60  73 CALM      30.08S                  
HOUSTON HOBBY  MOCLDY    72  59  63 NE5       30.07S                  
*HOUSTON SW AP MOCLDY    65  61  85 CALM      30.08S                  
PEARLAND       MOCLDY    70  60  70 NE3       30.08S                  
HOUSTON HOOKS  MOCLDY    64  60  87 CALM      30.09S                  
ELLINGTON FLD  MOCLDY    73  55  53 NE3       30.08S                  
SUGAR LAND     MOCLDY    67  60  78 NE3       30.07S                  
*HOUSTON EXEC  MOCLDY    66  59  77 NE5       30.09S                  
*CLEVELAND MUN MOCLDY    63  63  98 CALM      30.11R                  
*WHARTON       MOCLDY    67  58  72 NE3       30.08S                  
$$

TXZ214>216-236>238-240600-
THE UPPER TEXAS COAST
  
CITY           SKY/WX    TMP DP  RH WIND       PRES   REMARKS
*ORANGE        PTCLDY    67  58  70 NE7       30.09F                  
PORT ARTHUR    PTCLDY    72  57  59 NE6       30.07S                  
GALVESTON      MOCLDY    75  65  70 N10       30.07S                  
ANGLETON       MOCLDY    67  62  84 NE5       30.07S                  
*BAY CITY      MOCLDY    69  63  81 NE3       30.06S                  
PALACIOS         N/A     68  60  75 E5        30.06R                  
$$

TXZ229>234-239>247-240600-
TEXAS COASTAL BEND AND RIO GRANDE PLAINS
  
CITY           SKY/WX    TMP DP  RH WIND       PRES   REMARKS
VICTORIA       MOCLDY    68  62  81 NE7       30.07R                  
*BEEVILLE      MOCLDY    72  62  70 E3        30.06S                  
ROCKPORT       MOCLDY    79  62  56 E14       30.04                   
*PORT ARANSAS  MOCLDY    78  65  64 E13       30.04S                  
*PORT LAVACA   MOCLDY    73  62  69 E9        30.06S                  
*INGLESIDE     MOCLDY    79  61  54 E9        30.04R                  
CORPUS CHRISTI MOCLDY    78  63  59 E9        30.04R                  
CORPUS NAS     MOCLDY    80  67  64 E16       30.03S                  
*ROBSTOWN      NOT AVBL                                               
ALICE          PTCLDY    71  68  90 CALM      30.04R                  
KINGSVILLE NAS MOCLDY    70  69  97 NE6       30.04R                  
COTULLA        PTCLDY    77  58  51 SE7       30.07R                  
*FAITH RANCH   PTCLDY    81  68  65 S6        30.06R                  
LAREDO         PTCLDY    78  71  79 SE9       30.08R                  
$$

TXZ248>255-240600-
DEEP SOUTH TEXAS
  
CITY           SKY/WX    TMP DP  RH WIND       PRES   REMARKS
BROWNSVILLE    PTCLDY    77  74  90 CALM      30.01S                  
PORT ISABEL    PTCLDY    78  72  81 NE7       30.00                   
*SOUTH PADRE   PTCLDY    82  75  78 NE14      30.00S                  
HARLINGEN      PTCLDY    75  73  93 NE6       30.01R                  
*HEBBRONVILLE  CLEAR     73  67  81 CALM      30.08R                  
MCALLEN        CLEAR     76  72  87 CALM      30.03S                  
*WESLACO       PTCLDY    73  70  90 CALM      30.02S                  
FALFURRIAS     PTCLDY   N/A N/A N/A NE3       30.03S                  
EDINBURG       PTCLDY    74  70  88 CALM      30.03S                  
*ZAPATA        PTCLDY    75  69  81 E5        30.05S                  
$$

TXZ213>215-236>238-242>244-246-247-251-254-255-240600-
CMAN STATIONS
  
STATION/POSITION TIME  TEMP    WIND        PRES    WAVE
                       AIR SEA DIR/SP/G            HT/PER
                 (UTC) (F)     (DEG/KT/KT) (MB)    (FT/S)
SABINE PASS      0400   72 81   50/  7/  9 1018.4
SEA RIM ST PARK  0400   72      60/  7/  8 1018.9
NORTH JETTY/GLS  0400   78 81   70/ 14/ 16   N/A
EAGLE POINT      0400   78 79   70/ 15/ 17 1018.3
MORGANS POINT    0400   73      40/  5/  7 1018.4
MISSION/ARANSAS  0400           70/ 14     1018.0
PORT O'CONNOR    0400           40/ 15/ 18   N/A
PORT ARANSAS     0400   80 83   50/ 16/ 18 1017.5
MALAQUITE BEACH  0400   80 83   60/ 15/ 19 1016.3
BAFFIN BAY       0400   80 84   70/ 12/ 14 1016.8
PORT ISABEL      0400   82 83   60/ 13/ 18 1016.3
$$

GMZ080-GMZ150>470-240600-
OFFSHORE BUOY REPORTS
  
STATION/POSITION TIME  TEMP    WIND        PRES    WAVE
                       AIR SEA DIR/SP/G            HT/PER
                 (UTC) (F)     (DEG/KT/KT) (MB)    (FT/S)
20 E GALVESTON   0500   80 83   70/ 16/ 19 1017.1    3/ 6
90 E PT ARANSAS  0500   81 84   60/ 16/ 17 1016.9    4/ 6
35 NE PT MANSFLD 0400   82 84   50/ 16/ 19 1015.5    5/ 7
200 E PT ISABEL  0400   84 85   70/ 19/ 25 1014.9    6/ 7
$$

Return to Home page


Western Regional Climate Center, wrcc@dri.edu